Powrót do katalogu

SL-6 R/B(2)

AktywnyHEO
NORAD 18949·ROCKET BODY·🇷🇺 Russia

Wystrzelony Mar 11, 1988 z Baikonur Cosmodrome

Loading…

Następne Przeloty (najbliższe 24 godziny)

TLE

ŚwieżeSource: Space-Track

Epoka: Sep 9, 2026, 20:24 UTC

1 18949U 88017D   26252.85060280 -.00000327  00000-0  00000+0 0  9993
2 18949  62.3169 183.1443 7082083 261.6525  19.5916  2.10127079274653

Śledź SL-6 R/B(2) w czasie rzeczywistym z AllMySat

Download on the App Store